Find STARLINK-37510

NORAD ID: 799500959 Int'l Des: 2026-132N Constellation: starlink operational

Aktuelle Ansicht

3D-Globus wird geladen...

About STARLINK-37510

STARLINK-37510 (NORAD 799500959) is a starlink constellation satellite launched Jun 8, 2026

Über STARLINK-37510

Beschreibung wird geladen...

Nächste Überflüge

Passes for default location (London). Set your location on the main map for personalized predictions.

Höhenverlauf

Loading altitude history...

Zweizeiliger Elementsatz

1 99999C 2026132N 26163.60951389 .00729590 00000-0 840650-4 0 1632
2 99999 53.1637 346.9034 0008649 278.4775 224.8405 16.07769180 19
Epoch: 12. Juni 2026 • Age: 9 hours